Owensboro, KY

8:11 PM CDT on July 23, 2017 (GMT -0500)
Owensboro-Daviess County

Weather History for KOWB - November, 2013

Change the Weather History Date:

Sunday, November 3, 2013

  Actual Average Record
Temperature  
Mean Temperature 42 °F -  
Max Temperature 55 °F 60 °F 86 °F (1987)
Min Temperature 30 °F 40 °F 12 °F (1951)
Degree Days  
Heating Degree Days 22    
Moisture  
Dew Point 34 °F    
Average Humidity 84    
Maximum Humidity 100    
Minimum Humidity 42    
Precipitation  
Precipitation 0.00 in - - ()
Sea Level Pressure  
Sea Level Pressure 30.27 in    
Wind  
Wind Speed 1 mph (ESE)    
Max Wind Speed 7 mph    
Max Gust Speed -    
Visibility 5 miles    
Events Fog    
Averages and records for this station are not official NWS values.
T = Trace of Precipitation, MM = Missing Value Source: NWS Daily Summary

Daily Weather History Graph

Daily Weather History Graph

Search for Another Location

Airport or City:

Trip Planner

Search our weather history database for the weather conditions in past years. The results will help you decide how hot, cold, wet, or windy it might be!

Date:

Astronomy

Nov. 03, 2013 Rise Set
Actual Time 6:16 AM CST 4:47 PM CST
Civil Twilight 5:49 AM CST 5:14 PM CST
Nautical Twilight 5:17 AM CST 5:46 PM CST
Astronomical Twilight 4:47 AM CST 6:16 PM CST
Moon 6:19 AM CST (11/3) 5:02 PM CST (11/3)
Length of Visible Light 11h 25m
Length of Day
10h 31m
New Moon, 0% of the Moon is Illuminated
Nov 3
New Moon
Nov 9
First Quarter
Nov 17
Full
Nov 25
Last Quarter
Dec 2
New

Hourly Weather History & Observations

Time (CST) Temp. Windchill Dew Point Humidity Pressure Visibility Wind Dir Wind Speed Gust Speed Precip Events Conditions
12:56 AM 36.9 °F - 36.9 °F 100% 30.19 in 9.0 mi Calm Calm - N/A   Clear
1:56 AM 36.0 °F - 36.0 °F 100% 30.20 in 7.0 mi Calm Calm - N/A   Clear
1:56 AM 34.9 °F - 34.9 °F 100% 30.21 in 4.0 mi Calm Calm - N/A   Clear
2:56 AM 34.0 °F - 34.0 °F 100% 30.23 in 5.0 mi Calm Calm - N/A   Clear
3:32 AM 33.8 °F - 33.8 °F 100% 30.24 in 2.0 mi Calm Calm - N/A   Clear
3:42 AM 33.8 °F - 33.8 °F 100% 30.24 in 1.2 mi Calm Calm - N/A   Clear
3:44 AM 33.8 °F - 33.8 °F 100% 30.24 in 0.8 mi Calm Calm - N/A   Clear
3:56 AM 32.9 °F - 32.9 °F 100% 30.25 in 3.0 mi Calm Calm - N/A   Clear
4:01 AM 33.8 °F - 33.8 °F 100% 30.24 in 1.8 mi Calm Calm - N/A   Clear
4:14 AM 33.8 °F - 33.8 °F 100% 30.25 in 3.0 mi Calm Calm - N/A   Clear
4:56 AM 32.9 °F - 32.9 °F 100% 30.27 in 6.0 mi Calm Calm - N/A   Clear
4:59 AM 33.8 °F - 33.8 °F 100% 30.26 in 1.0 mi Calm Calm - N/A   Clear
5:06 AM 32.0 °F - 32.0 °F 100% 30.26 in 0.8 mi Calm Calm - N/A   Clear
5:09 AM 33.8 °F - 33.8 °F 100% 30.26 in 1.2 mi Calm Calm - N/A   Clear
5:20 AM 32.0 °F - 32.0 °F 100% 30.26 in 0.8 mi Calm Calm - N/A   Clear
5:25 AM 32.0 °F - 32.0 °F 100% 30.27 in 1.5 mi Calm Calm - N/A   Clear
5:29 AM 32.0 °F - 32.0 °F 100% 30.27 in 0.8 mi Calm Calm - N/A   Clear
5:41 AM 30.2 °F - 30.2 °F 100% 30.27 in 0.5 mi Calm Calm - N/A Fog Light Freezing Fog
5:48 AM 30.2 °F - 30.2 °F 100% 30.27 in 0.5 mi Calm Calm - N/A Fog Light Freezing Fog
5:56 AM 30.0 °F - 30.0 °F 100% 30.28 in 1.0 mi Calm Calm - N/A   Partly Cloudy
6:56 AM 30.0 °F - 30.0 °F 100% 30.31 in 0.5 mi Calm Calm - N/A Fog Light Freezing Fog
7:56 AM 36.0 °F - 36.0 °F 100% 30.34 in 1.0 mi Calm Calm - N/A   Clear
8:14 AM 39.2 °F - 39.2 °F 100% 30.33 in 3.0 mi Calm Calm - N/A   Clear
8:56 AM 43.0 °F - 41.9 °F 96% 30.35 in 6.0 mi Calm Calm - N/A   Partly Cloudy
9:56 AM 48.9 °F - 36.9 °F 63% 30.35 in 10.0 mi NE 5.8 mph - N/A   Partly Cloudy
10:56 AM 50.9 °F - 34.9 °F 54% 30.34 in 10.0 mi SE 5.8 mph - N/A   Partly Cloudy
11:56 AM 50.9 °F - 32.0 °F 48% 30.32 in 10.0 mi North 6.9 mph - N/A   Clear
12:56 PM 54.0 °F - 34.0 °F 47% 30.30 in 10.0 mi SSE 5.8 mph - N/A   Clear
1:56 PM 55.9 °F - 32.9 °F 42% 30.28 in 10.0 mi Calm Calm - N/A   Clear
2:56 PM 54.9 °F - 32.9 °F 43% 30.27 in 10.0 mi Variable 5.8 mph - N/A   Clear
3:56 PM 54.9 °F - 32.0 °F 42% 30.26 in 10.0 mi ESE 3.5 mph - N/A   Clear
4:56 PM 50.9 °F - 34.0 °F 52% 30.25 in 10.0 mi Variable 3.5 mph - N/A   Clear
5:56 PM 48.9 °F - 34.0 °F 56% 30.26 in 10.0 mi Calm Calm - N/A   Clear
6:56 PM 45.0 °F 42.6 °F 34.9 °F 68% 30.30 in 10.0 mi Variable 4.6 mph - N/A   Clear
7:56 PM 43.9 °F 40.5 °F 34.9 °F 71% 30.29 in 10.0 mi ESE 5.8 mph - N/A   Clear
8:56 PM 43.9 °F 41.3 °F 36.0 °F 74% 30.30 in 10.0 mi SE 4.6 mph - N/A   Clear
9:56 PM 43.9 °F - 36.0 °F 74% 30.31 in 10.0 mi Calm Calm - N/A   Clear
10:56 PM 43.9 °F 41.3 °F 36.0 °F 74% 30.29 in 10.0 mi ESE 4.6 mph - N/A   Clear